This demonstration page uses our WeatherBlox Daily Observations layout. Learn more.

Left ArrowRight Arrow

Hourly Observations for November 29, 2022

Temp ( °F °C ) Dew Point ( °F °C ) Humidity (%) Winds ( mph kmh ) Pressure ( in mb ) Visibility ( mi km ) Precip ( " mm )
12:15 am 00:15 Cloudy 37 2.5 22 -5.5 55 55 NNE 26 43 29.60 1002 10 16 0.00 0.00
12:35 am 00:35 Cloudy 36 2.1 22 -5.5 57 57 NNE 28 44 29.59 1002 10 16 0.00 0.00
12:55 am 00:55 Cloudy 36 2 22 -5.5 57 57 NNE 26 43 29.61 1003 10 16 0.00 0.00
1:15 am 01:15 Cloudy 35 1.5 22 -5.7 59 59 NNE 30 48 29.60 1002 10 16 0.00 0.00
1:35 am 01:35 Cloudy 34 1.1 21 -6 59 59 NNE 29 46 29.58 1002 10 16 0.00 0.00
1:55 am 01:55 Cloudy 34 0.9 20 -6.5 58 58 NNE 31 50 29.59 1002 10 16 0.00 0.00
2:15 am 02:15 Cloudy 33 0.4 20 -6.4 60 60 NNE 33 54 29.60 1002 10 16 0.00 0.00
2:35 am 02:35 Cloudy 32 0 21 -6 64 64 NNE 33 54 29.61 1003 10 16 0.00 0.00
2:55 am 02:55 Cloudy 32 0 21 -6 64 64 NNE 29 46 29.61 1003 10 16 0.00 0.00
3:15 am 03:15 Cloudy 32 -0.2 22 -5.7 66 66 NNE 30 48 29.63 1003 10 16 0.00 0.00
3:35 am 03:35 Cloudy 31 -0.5 22 -5.4 69 69 NNE 29 46 29.63 1003 10 16 0.00 0.00
3:55 am 03:55 Cloudy 31 -0.8 23 -5 73 73 NNE 31 50 29.62 1003 10 16 0.00 0.00
4:15 am 04:15 Cloudy 30 -1.1 24 -4.4 78 78 NNE 26 43 29.63 1004 10 16 0.00 0.00
4:35 am 04:35 Cloudy 29 -1.6 25 -4 84 84 NNE 28 44 29.64 1004 7 11 0.00 0.00
4:55 am 04:55 Cloudy 29 -1.7 25 -3.8 86 86 NNE 23 37 29.66 1004 7 11 0.00 0.00
5:15 am 05:15 Cloudy with Mist and Fog 28 -2.1 25 -3.9 87 87 NNE 29 46 29.66 1005 5 8 0.00 0.00
5:35 am 05:35 Cloudy with Light Wintry Mix 28 -2.2 25 -3.9 88 88 N 23 37 29.68 1005 7 11 0.00 0.00
5:55 am 05:55 Cloudy with Light Wintry Mix 28 -2.2 25 -3.7 89 89 N 24 39 29.72 1006 5 8 0.00 0.00
6:15 am 06:15 Cloudy with Light Wintry Mix 28 -2.2 26 -3.6 90 90 N 23 37 29.72 1006 3 5 0.00 0.00
6:35 am 06:35 Windy with Snow Likely 27 -2.6 24 -4.2 89 89 N 25 41 29.74 1007 4 6 0.00 0.00
6:55 am 06:55 Windy with Snow Likely 27 -3 24 -4.5 89 89 N 25 41 29.75 1008 5 8 0.00 0.00
7:15 am 07:15 Windy with Snow Likely 26 -3.3 23 -4.8 89 89 N 26 43 29.77 1008 4 6 0.00 0.00
7:35 am 07:35 Cloudy with Light Snow 25 -3.7 22 -5.5 87 87 N 18 30 29.80 1009 5 8 0.00 0.00
7:55 am 07:55 Cloudy with Light Snow 25 -4 22 -5.7 88 88 N 18 30 29.80 1009 4 6 0.00 0.00
8:15 am 08:15 Windy with Snow Likely 24 -4.3 21 -6.3 86 86 N 26 43 29.82 1010 10 16 0.00 0.00
8:35 am 08:35 Windy with Snow Likely 24 -4.6 19 -7 83 83 N 23 37 29.83 1010 7 11 0.00 0.00
8:55 am 08:55 Windy with Snow Likely 23 -4.9 20 -6.8 86 86 N 21 33 29.85 1011 2 3 0.00 0.00
9:15 am 09:15 Windy with Snow Likely 23 -5 19 -7.1 85 85 N 21 33 29.86 1011 3 4 0.00 0.00
9:35 am 09:35 Cloudy with Light Snow 22 -5.3 19 -7.2 86 86 N 18 30 29.89 1012 2 3 0.00 0.00
9:55 am 09:55 Windy with Snow Likely 22 -5.5 19 -7.4 86 86 N 20 31 29.89 1012 2 3 0.00 0.00
10:15 am 10:15 Windy with Snow Likely 22 -5.5 19 -7.5 86 86 N 21 33 29.90 1012 3 4 0.00 0.00
10:35 am 10:35 Windy with Snow Likely 22 -5.5 19 -7.3 87 87 N 24 39 29.92 1013 2 3 0.00 0.00
10:55 am 10:55 Windy with Snow Likely 22 -5.6 19 -7.5 86 86 N 22 35 29.92 1013 2 3 0.00 0.00
11:15 am 11:15 Windy with Snow Likely 21 -6 17 -8.2 84 84 N 26 43 29.95 1014 1 2 0.00 0.00
11:35 am 11:35 Windy with Snow Likely 22 -5.7 18 -7.6 86 86 N 23 37 29.95 1014 1 2 0.00 0.00
11:55 am 11:55 Cloudy with Light Snow 23 -5.1 18 -7.7 82 82 NNW 18 30 29.96 1015 3 4 0.00 0.00
12:15 pm 12:15 Mostly Cloudy 24 -4.5 17 -8.2 75 75 N 20 31 29.95 1014 10 16 0.00 0.00
12:35 pm 12:35 Mostly Cloudy 25 -4.1 18 -7.9 75 75 NNW 20 31 29.96 1015 10 16 0.00 0.00
12:55 pm 12:55 Mostly Cloudy 25 -4 16 -9 68 68 NNW 20 31 29.95 1014 10 16 0.00 0.00
1:15 pm 13:15 Partly Cloudy 25 -4 15 -9.5 65 65 NNW 20 31 29.96 1015 10 16 0.00 0.00
1:35 pm 13:35 Mostly Cloudy 25 -3.7 16 -9.1 66 66 NNW 22 35 29.96 1015 10 16 0.00 0.00
1:55 pm 13:55 Mostly Cloudy 25 -3.8 15 -9.7 63 63 NNW 21 33 29.97 1015 10 16 0.00 0.00
2:15 pm 14:15 Mostly Cloudy 26 -3.3 15 -9.5 62 62 NNW 24 39 29.98 1015 10 16 0.00 0.00
2:35 pm 14:35 Mostly Cloudy 26 -3.4 13 -10.5 58 58 NNW 20 31 30.00 1016 10 16 0.00 0.00
2:55 pm 14:55 Mostly Cloudy 26 -3.6 12 -10.9 57 57 NNW 20 31 30.02 1017 10 16 0.00 0.00
3:15 pm 15:15 Mostly Cloudy 26 -3.5 13 -10.6 58 58 NW 18 30 30.03 1017 10 16 0.00 0.00
3:35 pm 15:35 Partly Cloudy 25 -3.8 13 -10.6 59 59 NW 18 30 30.04 1017 10 16 0.00 0.00
3:55 pm 15:55 Partly Cloudy 25 -4 13 -10.6 60 60 NNW 21 33 30.05 1018 10 16 0.00 0.00
4:15 pm 16:15 Sunny 24 -4.4 11 -11.4 58 58 NNW 13 20 30.07 1018 10 16 0.00 0.00
4:35 pm 16:35 Partly Cloudy 24 -4.6 11 -11.9 57 57 NNW 20 31 30.08 1019 10 16 0.00 0.00
4:55 pm 16:55 Mostly Cloudy 24 -4.6 11 -11.6 58 58 NNW 16 26 30.10 1019 10 16 0.00 0.00
5:15 pm 17:15 Cloudy 23 -5 12 -11.3 61 61 NNW 10 17 30.11 1020 10 16 0.00 0.00
5:35 pm 17:35 Mostly Cloudy 23 -5.1 12 -11 63 63 NW 9 15 30.14 1021 10 16 0.00 0.00
5:55 pm 17:55 Clear 21 -5.9 11 -11.6 64 64 WNW 12 19 30.15 1021 10 16 0.00 0.00
6:15 pm 18:15 Clear 20 -6.4 11 -11.8 65 65 WNW 12 19 30.17 1022 10 16 0.00 0.00
6:35 pm 18:35 Clear 19 -7.1 10 -12 68 68 WNW 8 13 30.19 1022 10 16 0.00 0.00
6:55 pm 18:55 Clear 19 -7.5 10 -12 70 70 WNW 8 13 30.21 1023 10 16 0.00 0.00
7:15 pm 19:15 Clear 19 -7.2 11 -11.7 70 70 WNW 12 19 30.22 1023 10 16 0.00 0.00
7:35 pm 19:35 Clear 19 -7.5 11 -11.9 71 71 WNW 9 15 30.22 1023 10 16 0.00 0.00
7:55 pm 19:55 Clear 19 -7.5 10 -12 70 70 W 9 15 30.24 1024 10 16 0.00 0.00
8:15 pm 20:15 Clear 19 -7.5 10 -12.1 69 69 W 9 15 30.24 1024 10 16 0.00 0.00
8:35 pm 20:35 Clear 18 -7.7 10 -12.1 71 71 W 10 17 30.25 1024 10 16 0.00 0.00
8:55 pm 20:55 Clear 18 -8 10 -12.5 70 70 WNW 10 17 30.26 1025 10 16 0.00 0.00
9:15 pm 21:15 Clear 17 -8.3 9 -12.6 71 71 WNW 9 15 30.27 1025 10 16 0.00 0.00
9:35 pm 21:35 Clear 17 -8.5 9 -12.8 71 71 WNW 9 15 30.28 1025 10 16 0.00 0.00
9:55 pm 21:55 Clear 16 -8.7 8 -13.1 70 70 WNW 8 13 30.29 1026 10 16 0.00 0.00
10:15 pm 22:15 Clear 15 -9.5 8 -13.5 73 73 WNW 8 13 30.30 1026 10 16 0.00 0.00
10:35 pm 22:35 Clear 14 -10 7 -13.7 74 74 WNW 8 13 30.32 1027 10 16 0.00 0.00
10:55 pm 22:55 Clear 15 -9.6 8 -13.6 72 72 WNW 8 13 30.32 1027 10 16 0.00 0.00
11:15 pm 23:15 Clear 14 -10 7 -13.9 73 73 WNW 8 13 30.33 1027 10 16 0.00 0.00
11:35 pm 23:35 Clear 14 -10.2 7 -14 74 74 WNW 7 11 30.34 1027 10 16 0.00 0.00
11:55 pm 23:55 Clear 13 -10.6 6 -14.3 74 74 WNW 8 13 30.35 1028 10 16 0.00 0.00

Powered by AerisWeather